Location: Newark
(41.8083°N, 72.2500°W)
Time: 15:06:16
(UTC+00:00)

deb Explorer IX - Pass Details

Date: 08 December 2021
Orbit: 544 x 1082 km, 38.8° (Epoch: 19 January)

Event Time Altitude Azimuth Distance (km) Brightness Sun altitude
Rises 18:47:18 0° 268° (W) 2,795 ? 19.1°
Reaches altitude 10° 18:50:53 10° 238° (WSW) 1,831 ? 18.8°
Maximum altitude 18:52:34 12° 214° (SSW) 1,675 ? 18.6°
Drops below altitude 10° 18:54:13 10° 189° (S) 1,799 ? 18.4°
Sets 18:57:40 0° 158° (SSE) 2,689 ? 18.1°
